Theta_e
321 320 321 320 320 321 322 321 321 321 321 321 319 318 315 314 310 305 297 300 298 301 299 301 301 300 298 295 295 294 293 293 294 295 295 296 297 296 297 298 299 300 301 301 301 300 300 299 299 300 300 299 298 298 298 297 297 297 297 297 297 297 296 296 296 296 296 296 297 297 297 297 297 297
320 320 320 321 320 321 321 320 321 320 320 319 318 317 318 317 312 311 307 305 302 304 301 302 302 297 296 293 293 293 293 293 293 295 295 295 295 295 296 297 298 298 299 301 301 300 300 299 298 299 299 298 298 298 298 298 297 297 297 297 297 296 296 296 296 296 295 296 296 297 297 297 297 297
319 319 318 319 319 320 320 320 320 320 320 319 318 317 317 316 314 312 310 305 307 308 303 300 302 296 295 294 293 293 293 293 292 294 294 293 292 292 293 294 296 297 298 299 299 299 300 300 299 298 299 298 298 297 297 297 297 296 296 296 296 295 295 295 295 295 295 295 295 296 296 296 296 296
319 318 317 317 318 319 319 319 319 319 319 318 317 316 315 314 314 313 311 307 307 302 305 299 298 295 293 294 293 292 293 293 291 292 291 291 289 289 290 292 293 295 297 296 296 297 298 298 297 298 299 298 298 297 297 296 296 296 296 295 295 294 294 294 294 294 294 294 294 295 295 295 295 295
318 318 317 318 319 320 318 316 316 317 317 317 316 315 313 312 313 311 308 306 305 296 292 297 295 293 293 292 293 292 292 290 290 289 289 289 289 290 290 292 291 292 294 295 295 296 297 296 295 296 296 296 296 296 296 295 294 294 294 293 294 294 293 293 294 294 294 293 293 294 294 294 294 294
318 317 316 316 317 318 317 317 316 316 315 313 310 310 309 309 308 309 307 305 304 303 290 291 292 292 293 292 293 291 289 288 290 289 289 289 290 290 291 291 291 291 292 293 294 295 295 295 294 294 294 294 294 294 294 293 293 293 293 292 292 293 293 293 293 293 292 293 293 293 293 293 294 294
317 316 315 316 318 319 318 316 316 314 313 311 309 308 307 307 308 309 308 305 300 301 300 292 291 290 290 291 289 290 290 289 290 289 288 287 288 290 290 290 290 290 291 292 293 294 294 294 293 293 293 293 293 292 292 292 292 292 292 292 292 291 291 291 291 292 292 292 292 292 292 292 293 293
316 315 314 315 317 316 314 313 312 311 309 307 306 306 304 304 306 307 305 305 304 301 300 289 290 288 288 288 288 289 289 287 287 288 288 288 288 288 288 289 289 289 290 290 291 292 293 293 293 293 293 292 292 292 292 291 291 291 291 291 291 290 290 290 290 290 290 291 291 291 292 292 292 292
317 317 315 314 315 314 312 310 307 304 302 303 303 303 303 302 303 299 297 296 296 296 296 289 287 287 287 287 286 286 285 286 286 286 287 287 287 287 288 289 289 288 288 289 289 290 291 292 293 292 292 292 292 292 291 291 290 290 290 290 289 289 289 289 289 290 290 290 290 290 291 291 291 291
317 316 315 314 314 312 310 309 306 303 301 301 301 300 298 298 297 295 295 295 295 295 295 291 286 285 285 285 284 285 286 285 284 285 286 287 287 287 287 288 288 288 287 287 287 288 289 290 291 292 291 291 291 291 291 290 289 289 289 289 289 289 289 289 289 289 289 289 289 289 289 290 290 290
316 316 315 314 312 309 308 308 306 304 302 300 298 298 298 297 297 298 298 295 294 294 293 289 289 287 286 286 285 285 286 286 286 285 285 285 286 286 286 286 287 287 286 287 287 287 288 288 289 290 290 290 290 290 290 289 289 288 288 288 288 288 288 288 288 288 289 289 289 289 288 289 289 289
314 314 313 313 311 309 308 308 307 302 299 297 297 298 297 296 295 296 296 294 294 293 292 292 290 287 285 285 286 285 285 285 285 286 286 285 286 285 286 286 286 286 285 285 285 286 286 287 287 288 288 288 288 287 288 288 287 287 287 287 287 287 287 288 288 288 288 288 288 288 288 288 288 289
310 310 310 309 307 305 299 298 299 298 298 300 299 298 298 296 296 296 295 293 293 293 292 292 289 287 285 285 284 283 283 284 286 287 286 286 287 288 287 286 286 286 285 285 285 285 285 285 285 285 286 287 287 287 286 286 286 286 287 287 286 287 287 287 288 288 288 288 288 288 288 287 287 287
302 302 303 303 296 295 294 294 295 296 296 296 302 302 298 296 296 294 292 292 291 290 290 291 287 286 286 286 286 285 286 287 287 286 286 285 287 287 286 287 287 286 285 285 284 285 285 284 284 285 284 286 285 286 286 285 286 285 286 286 286 287 287 288 288 288 288 288 287 287 287 287 287 286
298 297 298 297 293 292 291 292 292 294 294 294 295 295 295 295 298 292 291 290 292 291 291 292 288 289 289 288 287 287 289 287 286 287 286 286 286 286 285 285 287 286 286 284 284 285 286 284 283 284 284 284 284 284 284 285 285 285 285 285 285 286 287 287 287 287 287 287 287 287 287 286 286 286
299 296 294 293 294 294 295 295 293 292 291 292 292 292 292 292 293 294 294 292 290 290 291 291 290 290 290 290 289 288 287 287 286 286 286 286 286 286 285 286 287 285 284 284 284 284 285 283 283 283 284 284 284 283 284 285 285 285 285 285 285 286 287 287 287 287 287 287 286 286 286 285 285 285
298 295 294 293 293 294 289 291 293 295 294 290 291 290 290 291 292 293 293 293 295 294 291 291 291 291 291 291 290 290 289 288 286 286 286 286 286 286 286 287 287 281 283 283 283 283 285 282 282 282 283 284 283 282 283 284 284 285 285 286 286 286 287 287 287 287 287 286 286 286 285 285 285 285
296 295 296 294 293 292 291 292 293 295 295 295 292 292 293 293 290 290 291 290 289 291 294 294 292 293 292 291 292 291 289 287 286 286 285 286 285 285 285 285 283 281 282 283 283 282 285 282 282 282 284 283 281 281 282 283 284 285 286 286 286 286 287 286 286 287 286 286 285 285 284 284 284 285
295 295 296 296 295 294 293 293 293 294 295 295 293 293 291 293 291 291 292 292 292 291 292 293 292 292 291 292 290 290 290 288 288 287 286 286 286 285 285 283 284 283 281 281 281 281 285 279 281 281 283 282 281 282 281 282 283 285 285 286 286 286 286 286 286 286 286 285 284 284 284 284 284 284
294 294 294 294 294 293 294 291 290 292 294 293 288 288 288 289 289 289 289 290 291 290 290 290 291 290 290 290 290 289 289 288 287 287 286 286 285 284 283 283 285 283 283 280 281 281 283 282 280 282 282 281 280 282 281 282 283 284 285 285 286 286 286 286 286 286 285 284 284 283 283 283 283 283
293 293 294 295 296 296 296 290 291 291 291 289 287 287 287 286 287 287 286 286 287 288 288 288 288 288 288 289 290 290 290 288 288 287 285 284 284 283 283 284 284 284 282 280 280 281 280 282 281 280 282 281 280 281 282 280 280 281 283 284 285 285 286 286 286 285 284 284 283 283 282 283 283 282
293 293 289 291 296 295 295 290 290 291 290 289 287 287 286 285 286 286 285 286 287 288 288 287 287 288 289 289 289 290 290 289 287 286 284 285 284 284 284 284 285 285 282 281 280 280 280 281 280 279 281 280 280 280 280 278 277 278 279 281 283 284 285 285 285 285 284 283 282 282 282 282 282 280
291 291 288 288 292 293 292 290 291 290 289 289 287 287 286 287 286 287 285 286 285 286 285 286 286 287 287 288 288 288 288 288 286 286 286 286 285 284 284 284 284 283 283 278 280 279 281 280 281 279 279 280 281 276 277 278 277 278 279 279 280 282 282 283 284 283 282 282 281 281 281 281 281 279
288 289 290 289 290 291 291 291 291 290 290 290 288 288 288 288 287 287 285 286 286 285 285 285 286 286 286 286 286 287 286 286 285 285 285 285 285 284 284 283 283 281 282 277 280 279 281 279 279 279 279 276 276 280 279 279 279 278 278 277 278 279 279 280 280 281 281 281 280 280 280 280 280 279
291 290 290 290 289 291 290 290 290 290 290 289 288 287 288 288 287 286 285 284 285 285 284 284 284 285 285 285 285 286 286 286 285 284 284 283 283 283 283 282 282 282 282 278 280 279 279 279 277 278 278 278 278 277 280 279 279 279 278 277 277 278 277 278 278 277 278 279 279 279 279 279 279 279
291 291 291 291 288 289 289 290 290 290 289 289 287 287 288 287 285 285 285 285 285 285 284 285 284 285 285 285 285 285 285 285 285 284 283 283 282 282 283 282 281 280 281 279 281 279 279 278 278 277 278 277 277 279 277 278 280 278 278 277 276 275 276 276 276 276 276 277 277 277 277 278 279 279
290 291 291 289 287 288 289 290 290 290 289 287 287 288 287 286 285 285 285 285 285 284 284 284 284 284 284 284 284 284 284 284 283 284 283 282 281 281 281 281 281 280 281 279 281 279 278 278 279 277 276 277 276 276 277 276 277 280 279 278 275 276 275 275 275 276 277 276 276 277 277 278 278 278
291 289 289 287 287 288 288 289 290 290 288 287 288 287 287 285 284 284 284 284 284 283 283 283 283 283 284 284 283 283 283 283 282 281 280 280 280 281 281 279 279 279 279 279 279 279 279 278 278 279 277 276 274 273 273 277 278 277 276 278 278 277 275 275 275 276 276 276 276 275 275 274 275 275
291 288 288 287 287 287 288 289 289 289 288 287 287 287 285 283 284 284 284 283 283 283 282 283 283 282 282 283 282 281 281 280 280 280 279 278 279 279 279 279 280 279 278 278 279 279 279 278 278 278 277 276 274 274 275 274 275 274 275 274 273 276 276 276 276 275 275 275 275 274 274 273 273 274
286 286 286 286 287 286 287 287 287 288 287 286 286 284 283 284 284 284 283 282 282 282 282 282 281 281 281 281 280 279 280 281 280 280 280 279 278 278 279 279 279 278 278 277 278 278 278 278 277 277 276 276 276 274 274 273 272 274 274 273 274 275 277 276 275 274 274 274 274 274 274 274 273 273
285 285 285 286 286 286 286 286 286 286 286 285 285 284 284 284 284 283 283 283 283 282 282 281 280 280 280 280 279 280 280 279 279 279 279 279 278 278 278 277 277 277 278 276 277 276 276 276 276 276 274 274 274 275 274 274 272 273 273 274 273 271 273 274 275 275 275 274 273 273 273 273 273 273
285 285 284 284 284 284 284 284 284 286 286 286 285 284 284 283 282 282 282 282 282 282 282 281 280 279 279 279 279 279 279 279 278 278 278 278 277 277 276 276 276 276 276 276 276 276 275 275 274 276 275 275 273 273 274 274 273 272 272 274 274 274 274 273 274 274 275 273 272 271 272 273 272 273
283 283 283 282 282 282 282 281 282 282 283 283 283 282 282 282 281 282 282 281 281 281 281 280 279 279 279 278 278 278 278 278 277 278 277 277 276 276 276 275 275 274 274 274 276 276 276 275 275 274 275 274 274 273 272 271 272 273 272 272 273 272 273 274 274 274 274 272 271 271 271 272 273 273
282 281 281 281 281 281 281 281 281 281 281 280 281 282 282 282 282 282 282 282 281 281 280 280 279 279 278 277 277 277 277 277 277 277 277 276 276 275 275 274 274 275 274 274 275 275 275 275 274 274 274 273 274 273 272 271 271 272 273 273 272 272 273 274 274 273 273 272 271 269 270 271 273 274
283 281 280 280 280 280 281 281 281 280 280 279 279 279 280 281 281 281 281 281 281 280 279 279 279 279 278 277 277 277 277 276 276 276 276 275 275 274 274 273 274 274 274 274 274 275 275 274 274 273 273 273 272 273 275 273 271 272 273 273 273 272 272 273 273 273 272 271 271 268 269 270 271 273
280 280 279 279 279 280 280 280 280 280 279 279 278 277 277 279 279 279 279 280 280 279 279 278 278 277 277 277 277 277 276 275 275 275 275 275 274 274 275 274 273 274 274 274 274 275 274 273 273 271 270 270 270 269 271 276 274 273 271 271 272 272 272 272 273 272 272 270 271 269 268 268 270 272
280 279 279 279 279 279 279 279 279 279 279 278 278 278 278 277 277 278 278 278 278 278 278 278 277 277 277 276 276 275 275 275 275 275 275 275 275 274 273 273 273 273 273 274 275 274 274 273 273 272 270 269 268 267 269 274 275 277 273 271 271 272 271 271 271 271 272 272 269 270 269 269 269 271
279 279 279 278 278 279 279 278 278 278 278 278 278 278 278 277 276 275 275 276 276 276 276 277 276 276 276 276 275 275 275 275 275 274 274 274 274 273 273 273 273 273 273 273 273 273 274 273 272 272 271 268 267 267 267 271 272 273 276 273 271 271 272 271 270 270 270 272 271 270 270 269 269 270
279 279 278 278 278 278 277 278 278 277 277 277 277 277 276 275 275 274 275 276 276 276 276 276 275 275 275 275 276 275 274 274 274 274 274 274 274 272 272 273 272 273 272 271 272 273 273 272 272 271 271 269 268 268 269 268 269 271 274 275 273 271 271 271 270 270 271 270 271 271 271 271 271 272
279 279 279 278 278 278 277 278 278 277 277 277 277 276 275 275 275 275 275 275 275 275 276 275 275 275 275 275 275 275 274 273 273 273 273 273 273 273 272 272 272 271 271 270 270 271 271 271 272 271 271 271 271 272 271 271 271 273 273 274 274 273 271 271 269 270 269 271 271 269 269 270 268 269
278 278 278 278 278 278 278 278 278 278 278 278 277 277 277 276 276 276 276 275 275 275 275 275 274 274 274 274 274 274 273 273 273 273 273 272 272 272 271 271 270 271 270 269 270 270 271 271 271 272 272 272 272 272 270 269 267 269 270 271 273 273 273 273 271 270 270 270 269 269 268 267 267 268
278 278 278 279 278 278 278 278 278 278 278 277 277 277 277 277 277 277 276 275 275 275 275 274 274 274 274 274 273 273 272 272 272 272 272 271 270 271 270 270 269 270 270 268 269 270 272 272 271 271 271 270 270 268 266 267 266 267 268 270 271 273 273 273 273 273 273 270 269 268 268 268 269 268
278 278 278 278 278 278 278 277 277 277 277 277 276 276 276 275 275 275 274 274 274 274 274 274 274 273 273 273 273 273 272 271 271 271 270 270 270 269 269 269 270 269 269 269 270 270 270 270 270 270 270 269 269 268 266 266 267 267 267 268 268 269 270 272 273 273 274 273 273 272 270 269 267 266
278 277 277 277 277 276 276 275 275 274 274 274 274 274 274 273 273 273 273 273 272 272 272 272 272 272 271 271 271 271 271 270 270 270 269 269 269 269 269 269 269 269 269 269 268 269 269 269 269 269 267 267 267 266 265 265 265 266 267 267 268 268 268 270 271 273 274 273 273 272 272 273 273 272
276 275 274 274 273 273 273 273 271 271 272 271 272 272 271 271 271 271 270 270 270 270 270 271 270 270 270 270 270 269 270 270 269 269 269 269 269 269 268 268 267 267 267 268 267 267 268 268 268 268 267 267 267 266 266 266 265 265 266 266 265 266 268 268 268 268 270 271 273 274 274 273 273 273
Wind_Speed
14 15 16 15 15 15 13 13 13 12 12 9 7 8 10 10 10 6 6 8 8 7 11 8 7 11 7 6 5 7 8 8 10 9 9 8 6 11 14 13 12 12 13 13 14 14 14 14 14 13 12 11 11 11 11 10 9 9 9 9 10 10 10 10 11 11 13 15 17 18 19 19 20 21
13 13 12 10 10 13 12 13 11 11 11 7 7 10 8 10 11 9 10 7 8 5 8 10 5 7 7 5 6 6 8 10 13 9 9 7 6 8 13 12 12 13 13 14 14 15 16 16 15 14 13 13 13 12 12 11 10 10 10 10 10 10 10 10 11 11 13 14 16 18 19 19 20 21
10 12 12 12 10 10 11 9 10 9 9 11 9 10 9 9 10 10 8 9 3 5 5 7 6 5 7 7 7 5 6 9 13 9 7 6 6 7 8 12 13 14 14 14 14 15 16 16 16 15 15 14 14 13 13 12 11 11 11 11 10 10 10 10 11 12 13 14 15 17 18 19 20 21
10 12 12 12 11 10 10 11 11 11 10 10 10 9 9 8 9 9 9 10 7 1 1 2 3 5 7 8 8 8 6 5 14 3 4 5 6 5 6 11 14 14 15 14 14 15 15 16 16 16 16 15 15 14 13 13 13 12 12 11 11 10 10 10 11 12 13 14 15 16 17 18 19 20
12 12 12 12 13 12 12 10 9 9 10 10 9 9 7 8 8 8 9 9 9 1 2 1 3 4 6 6 8 8 6 6 7 5 5 7 7 7 7 7 13 14 14 15 15 15 15 15 16 16 15 15 15 14 14 13 13 13 12 12 12 11 11 11 11 12 12 13 14 16 17 18 19 20
11 11 11 12 11 10 10 10 10 10 9 8 8 8 7 7 7 7 7 7 6 8 3 1 2 4 5 4 6 8 8 8 7 8 7 6 7 7 7 7 7 16 16 15 16 15 15 15 15 15 15 15 14 14 14 14 14 13 13 13 12 11 11 11 11 12 12 13 14 16 17 18 18 19
12 12 13 13 12 10 11 11 10 9 9 8 9 9 7 9 9 9 9 7 6 7 6 4 4 3 4 4 4 6 5 5 6 8 7 6 5 6 7 7 6 11 15 16 16 16 16 16 16 15 15 14 15 15 15 15 14 14 14 13 12 11 11 11 12 12 12 13 14 16 16 17 18 19
11 11 11 11 11 10 10 10 9 8 7 7 7 8 6 7 9 8 6 8 8 6 6 2 2 3 4 2 3 4 4 5 5 6 5 5 6 6 6 8 7 7 13 15 15 16 16 16 16 16 15 15 15 15 15 15 15 14 14 14 12 12 12 12 12 12 13 13 14 16 17 17 18 19
12 12 12 11 11 11 11 10 9 7 8 7 7 8 7 7 8 4 4 4 2 3 4 3 1 3 2 1 2 4 5 4 4 3 6 7 7 7 8 7 7 8 10 14 15 15 16 16 17 16 15 15 16 16 16 15 15 15 14 14 13 12 12 12 12 13 14 14 15 16 16 17 18 19
11 11 11 10 10 10 10 10 8 7 9 8 8 8 6 7 5 4 4 4 5 5 4 7 4 3 5 3 3 5 6 6 6 6 7 6 7 8 9 9 6 5 5 6 7 11 13 16 17 17 16 16 17 16 16 16 15 15 14 14 13 12 12 12 12 13 14 15 16 16 17 17 17 18
10 10 10 10 10 10 10 9 9 9 9 8 9 9 8 6 6 6 5 5 7 7 7 5 7 6 5 5 4 5 6 6 6 7 7 8 9 9 9 8 6 6 6 8 10 9 7 8 9 12 16 17 17 16 16 16 16 15 15 14 13 13 13 13 12 13 14 15 16 17 17 18 18 18
11 10 10 10 9 10 10 10 9 8 8 6 7 6 6 5 6 6 6 6 7 7 8 9 8 4 4 5 3 5 6 5 6 8 8 8 8 9 8 9 6 4 5 5 5 8 10 11 13 14 15 17 17 17 16 18 17 16 15 15 14 14 14 13 13 13 13 15 16 17 18 18 18 18
9 8 8 8 7 9 11 14 12 11 10 9 9 7 7 7 7 6 6 6 6 7 8 7 4 4 5 6 6 6 7 10 10 7 8 7 5 5 5 6 6 5 4 4 5 5 5 6 6 6 8 9 13 15 18 15 17 17 16 15 15 15 15 14 14 13 13 14 15 16 17 18 17 18
7 7 6 7 11 13 14 13 13 14 13 12 9 8 9 9 8 7 7 6 6 5 7 8 6 5 5 8 9 9 8 7 2 4 7 8 6 3 4 5 5 6 5 5 6 6 4 5 5 5 7 7 7 7 8 9 10 12 15 16 16 16 15 15 13 13 13 14 15 16 17 18 18 18
7 6 6 5 7 9 8 9 12 12 12 12 9 8 12 11 11 8 8 7 8 7 8 5 5 7 8 8 6 8 7 5 6 4 5 5 4 6 6 7 1 5 6 6 5 5 3 5 6 6 7 6 5 7 9 11 13 14 13 14 15 16 15 14 13 13 14 14 14 15 16 17 18 18
7 7 6 5 5 6 7 7 7 8 10 11 10 10 12 12 12 11 11 8 7 7 6 6 8 8 9 7 8 6 5 5 5 5 4 5 6 5 6 6 5 2 3 3 3 5 2 3 4 6 6 5 5 7 9 12 13 14 15 15 16 15 14 13 13 14 15 15 14 15 16 17 18 18
7 7 7 6 5 5 8 6 6 6 7 8 11 10 11 11 13 11 11 10 10 9 6 7 6 9 7 7 6 7 7 3 4 4 5 5 5 5 5 7 3 1 2 2 2 3 2 3 4 6 5 4 4 4 9 13 13 15 16 16 15 15 13 13 13 14 15 14 14 15 15 16 17 18
8 9 9 9 8 6 7 6 7 7 7 8 6 6 5 6 9 10 11 9 5 4 6 7 7 6 5 5 3 5 5 5 5 6 6 5 5 6 6 1 2 2 2 2 1 3 4 3 3 6 3 2 2 3 5 9 13 15 15 15 14 13 13 13 14 14 15 14 14 15 15 16 17 18
8 8 9 9 10 9 8 8 10 9 9 8 6 7 5 7 5 5 6 6 6 5 5 5 4 2 3 4 2 5 6 6 4 4 2 3 3 1 1 1 1 1 3 1 1 5 0 2 2 4 2 0 2 2 5 9 11 12 13 13 13 13 13 14 14 14 14 14 14 15 15 16 17 18
7 7 8 7 8 9 9 9 12 9 8 7 7 6 5 4 4 4 3 2 3 4 4 4 3 2 2 2 3 5 5 4 3 4 3 3 2 2 3 4 3 3 3 4 4 3 3 2 1 3 0 0 3 3 3 6 9 10 11 12 12 13 13 14 15 14 14 14 14 14 15 16 17 18
8 8 8 7 7 9 9 11 14 11 10 6 8 7 7 5 3 4 2 1 2 2 2 4 4 4 4 5 6 8 9 6 6 4 4 4 4 3 4 4 3 4 4 3 5 2 5 1 0 3 3 2 3 4 2 0 3 7 9 11 12 13 13 14 14 14 14 14 13 14 15 16 17 19
5 6 10 8 8 9 9 14 14 13 10 6 7 7 8 8 7 5 2 2 2 5 4 4 4 5 5 5 7 8 9 10 8 6 5 4 5 4 4 4 3 1 2 3 6 2 3 0 1 3 3 3 2 1 1 2 2 3 6 9 11 12 13 13 13 14 13 13 13 14 15 16 16 12
5 5 6 9 9 8 9 14 14 14 10 6 7 8 9 9 8 6 6 5 5 4 4 3 3 3 4 4 4 5 8 10 9 4 1 4 4 4 3 3 3 4 1 3 5 2 1 1 0 0 4 3 1 1 0 0 1 1 1 1 2 6 8 10 12 13 13 13 13 14 15 15 14 9
3 5 6 7 9 9 11 13 15 14 12 9 7 6 8 8 9 4 5 4 4 4 4 3 3 3 3 2 2 3 3 3 4 1 0 0 2 2 2 2 2 3 1 2 5 2 1 1 1 1 2 3 4 0 1 0 0 0 1 1 2 4 6 9 10 12 13 13 14 15 15 14 13 9
7 6 6 6 9 12 13 13 15 14 14 10 5 5 7 5 4 7 5 6 6 4 3 3 3 3 2 2 2 2 2 2 2 1 2 1 1 0 1 2 2 2 1 3 8 1 1 1 1 0 2 2 4 5 3 2 2 2 2 2 2 2 2 3 3 4 7 10 12 13 13 13 13 10
5 7 8 8 10 13 13 13 14 14 13 10 5 2 6 11 11 6 5 5 5 5 4 4 3 3 3 2 2 2 2 2 3 2 1 1 1 0 0 0 1 2 0 3 9 2 2 3 1 2 3 3 6 5 7 6 4 2 1 1 2 2 2 3 3 4 4 5 5 6 7 10 12 12
6 5 7 6 12 13 13 13 14 13 13 9 4 8 10 10 11 8 4 5 5 4 4 4 3 3 3 3 2 2 2 2 2 1 1 2 1 1 2 2 2 1 2 4 4 2 2 3 1 2 5 6 8 8 8 8 6 4 4 1 1 1 2 2 3 4 5 5 6 9 11 11 10 11
7 7 6 8 14 13 13 13 13 14 12 6 10 11 11 11 9 4 4 4 4 4 4 4 3 3 2 2 2 2 2 2 3 3 3 3 2 1 2 3 3 3 2 2 2 2 2 4 5 4 3 4 6 7 9 7 7 7 8 8 5 3 2 2 3 6 6 6 5 6 5 5 5 4
5 7 11 15 15 13 13 12 12 10 10 11 12 12 11 9 4 4 4 4 4 4 4 4 3 3 2 2 3 4 4 4 4 4 3 3 2 3 2 2 2 3 2 1 1 2 2 3 4 4 4 4 5 7 7 9 8 7 7 8 8 6 6 7 7 6 7 5 5 5 5 5 5 4
11 12 13 16 15 13 11 9 7 7 8 11 13 13 11 5 5 4 4 4 4 4 4 3 3 3 3 3 3 3 3 3 3 3 3 3 3 2 1 1 3 3 3 2 1 1 2 2 3 3 4 5 5 6 7 7 8 7 7 7 9 9 7 5 6 7 8 8 8 5 5 5 5 3
8 11 10 9 10 9 11 9 9 9 10 9 8 7 5 4 4 4 4 4 4 3 4 4 4 4 4 4 4 3 3 3 2 2 2 2 3 2 1 1 1 1 3 3 1 1 1 1 1 2 2 4 5 6 6 6 8 8 7 7 7 8 8 8 8 8 8 8 7 7 5 4 5 5
8 9 9 11 7 7 7 6 5 5 7 7 7 6 5 4 4 5 7 6 3 4 4 5 5 5 4 4 4 3 3 3 3 2 2 2 2 2 1 1 1 1 0 1 1 2 3 2 2 1 2 4 5 6 5 5 6 8 8 7 7 7 7 8 8 8 7 3 5 7 7 6 7 7
7 7 6 7 7 6 7 6 8 7 7 7 6 6 6 5 5 5 5 5 5 5 5 6 6 6 5 5 5 4 4 4 4 3 3 2 3 2 2 1 1 1 0 1 1 0 1 2 2 2 2 3 4 5 5 6 6 6 7 7 6 7 7 6 7 7 7 5 7 7 7 7 7 7
11 7 8 7 7 8 7 7 9 10 8 7 8 7 7 7 6 6 6 5 6 6 6 6 6 6 6 5 5 5 5 4 4 3 3 3 3 3 2 2 1 1 1 1 1 1 1 0 0 1 3 4 4 6 5 6 6 5 5 6 6 6 6 6 5 6 5 6 7 7 8 7 6 5
12 11 8 7 6 6 7 8 8 8 10 8 7 7 7 7 8 8 7 7 7 7 7 7 6 6 6 6 6 5 5 5 4 4 3 3 3 3 2 2 1 0 0 1 1 1 1 2 2 2 3 2 3 4 11 9 2 5 5 5 5 5 6 6 7 6 6 5 4 5 7 7 6 4
7 6 7 8 7 7 7 6 6 7 8 10 8 7 8 7 8 8 8 8 8 8 7 7 7 6 6 6 6 5 5 5 5 4 4 3 3 2 2 1 1 1 1 1 1 1 1 2 2 3 4 4 4 4 4 10 13 4 5 5 5 6 8 8 7 8 7 5 5 4 5 7 7 5
9 6 6 7 6 7 7 7 6 6 6 7 8 9 9 8 7 7 7 7 7 7 7 7 6 6 6 6 5 5 5 5 4 4 3 3 3 2 2 1 2 2 2 2 1 1 1 2 2 3 3 4 4 4 4 2 10 12 6 6 6 7 8 8 8 8 7 5 4 5 5 6 6 5
6 5 6 6 6 6 5 6 6 6 6 5 5 5 5 5 5 5 6 6 5 5 6 6 6 6 6 5 6 5 5 4 4 3 3 3 3 3 3 2 2 2 1 2 1 1 2 2 2 2 3 4 5 5 5 4 4 3 3 3 7 9 7 7 7 7 7 6 5 4 4 5 5 4
7 8 6 7 6 6 6 6 6 6 6 5 5 5 5 5 5 5 4 5 5 5 5 5 5 4 5 6 5 5 5 5 4 4 4 3 3 3 2 2 2 2 1 2 2 1 1 2 2 2 3 3 4 4 5 5 6 6 9 13 7 6 6 6 7 7 7 7 5 4 5 4 6 8
4 5 6 7 7 6 6 6 6 6 6 6 5 5 6 6 5 5 5 4 5 4 5 4 5 5 4 4 4 4 4 4 4 4 4 4 3 3 3 2 2 2 2 2 2 2 2 2 1 1 2 4 4 4 4 6 7 6 5 5 5 5 5 5 7 7 6 5 3 5 6 4 4 2
5 6 6 6 8 8 8 7 7 7 7 6 6 6 6 6 6 5 5 5 4 5 5 5 5 5 5 5 5 5 5 4 4 4 4 4 4 3 3 2 2 2 2 3 3 2 2 1 3 4 3 3 4 3 4 3 4 4 4 4 7 7 7 8 6 5 6 1 1 4 4 4 4 4
7 7 7 7 8 7 7 8 8 8 8 8 8 8 8 8 7 9 7 6 6 6 6 6 6 6 5 5 5 5 5 5 5 5 5 4 4 3 4 4 3 3 3 3 3 2 0 2 1 2 3 2 2 1 3 4 4 5 5 5 4 6 8 10 11 9 5 3 1 2 3 3 3 3
7 7 8 7 8 10 10 10 10 10 10 9 9 9 9 8 7 8 6 7 6 6 6 6 5 5 5 5 5 5 5 5 5 5 5 4 4 4 4 4 3 3 3 3 2 2 2 2 2 1 2 1 1 2 3 3 4 4 5 5 5 5 6 8 8 8 5 3 2 2 2 2 2 3
7 9 10 10 10 8 7 7 6 5 5 6 6 6 6 7 8 8 8 7 7 6 6 5 5 5 5 5 4 4 5 5 5 5 5 4 4 4 4 4 4 3 3 2 2 2 2 2 1 1 1 1 0 1 3 3 4 4 4 5 5 6 6 5 6 5 4 5 3 1 3 4 6 5
7 7 6 5 5 5 5 5 5 4 5 5 5 5 5 5 4 4 4 4 3 4 5 5 5 5 5 5 5 5 5 5 5 4 4 4 4 4 4 4 4 3 3 3 3 3 2 1 1 1 1 1 0 1 3 3 3 4 4 5 5 5 4 4 4 5 1 2 5 5 4 4 3 4
Wind_Direction
227 230 227 229 235 236 233 233 234 236 235 227 217 220 227 225 243 226 214 222 232 220 200 227 204 198 191 180 171 175 195 184 170 191 201 202 200 194 207 217 222 228 229 231 233 236 239 244 249 249 246 247 251 255 260 263 265 269 275 278 281 290 296 297 303 308 310 312 313 316 319 322 323 324
224 226 226 224 229 232 231 231 229 230 228 221 220 226 225 227 236 237 247 242 192 214 191 212 200 176 186 163 163 181 193 181 180 194 197 194 193 178 198 211 220 224 229 232 233 236 240 244 246 246 245 247 251 254 256 260 262 264 268 273 278 283 288 294 300 304 308 311 314 317 319 321 322 323
218 218 223 224 228 224 226 226 226 226 226 229 223 228 227 226 228 239 240 261 183 201 198 203 208 153 184 179 175 174 192 181 184 194 189 184 177 170 200 212 221 225 227 230 235 239 242 241 243 245 244 245 248 251 253 255 258 261 263 268 273 277 284 291 296 301 306 311 314 316 317 319 321 322
218 220 221 220 224 222 225 226 224 225 224 223 225 224 225 223 225 228 238 246 246 121 324 91 143 132 161 172 175 179 186 161 181 171 167 163 159 188 214 215 223 227 227 229 234 239 241 243 248 247 246 246 249 252 253 253 257 260 260 263 267 273 279 286 291 297 305 311 313 314 316 317 320 321
217 219 222 222 224 222 222 223 222 224 224 222 225 225 219 223 222 222 231 237 245 219 357 62 152 146 142 170 185 181 168 157 184 188 182 180 193 200 214 215 215 223 227 229 233 236 238 242 248 250 249 250 252 255 256 256 257 259 260 262 264 269 276 280 287 296 305 308 311 313 315 317 318 320
216 218 222 226 225 218 223 221 222 221 221 220 219 217 212 216 220 214 221 239 241 238 117 202 128 151 187 183 179 189 170 181 177 189 192 193 197 204 210 219 214 211 223 227 233 236 238 242 246 247 248 250 252 253 254 255 256 256 257 259 261 267 274 281 287 294 301 308 311 312 314 315 316 318
214 216 219 221 221 221 223 223 224 218 220 214 214 218 208 216 221 217 212 209 224 234 224 136 146 165 182 201 173 183 170 161 177 183 192 197 204 215 215 219 230 205 216 226 232 236 239 243 246 246 245 247 249 252 252 254 255 258 260 262 264 267 272 278 284 291 301 307 310 310 311 313 314 316
215 218 220 220 218 220 224 225 221 216 213 210 210 216 210 211 223 224 205 210 217 219 210 126 147 157 152 180 111 153 128 137 164 190 190 192 213 220 223 229 231 211 213 225 231 236 239 243 245 246 246 247 249 250 251 253 255 257 260 263 265 269 273 278 285 291 298 305 308 308 309 311 313 315
218 218 219 219 218 217 219 223 220 205 203 205 204 212 210 205 219 212 188 211 202 197 206 124 54 112 111 96 140 152 150 154 170 192 214 209 218 225 229 231 234 236 215 225 232 237 241 244 245 246 248 249 250 251 250 253 256 258 260 263 265 268 272 277 282 289 297 302 304 304 306 309 311 313
218 219 217 216 217 218 216 221 213 203 207 203 205 211 206 202 188 192 190 182 184 192 202 153 141 174 169 176 184 178 171 163 180 205 220 226 222 226 233 230 222 212 210 214 229 239 244 247 248 247 249 250 251 251 251 253 255 257 259 261 265 267 270 273 278 287 294 298 301 303 304 307 310 312
219 218 218 216 214 209 207 211 208 206 206 200 208 205 203 192 181 189 196 188 181 191 184 176 178 169 187 175 166 169 181 191 198 200 203 225 220 223 229 235 215 198 214 227 232 237 238 242 243 244 245 249 251 253 254 254 253 254 257 259 262 265 266 269 274 282 290 296 299 302 304 307 309 311
218 215 212 213 207 204 206 208 209 189 196 189 206 204 188 172 174 182 180 184 191 195 196 199 194 167 142 161 115 122 163 192 223 217 210 218 212 215 219 226 225 197 199 228 228 229 239 249 251 251 251 250 250 252 255 254 253 252 254 256 258 260 260 262 267 275 285 292 296 299 302 304 307 310
215 211 208 206 201 201 204 204 196 191 189 181 198 197 178 174 176 183 180 193 187 204 202 205 172 154 164 180 159 167 182 199 210 197 199 227 228 223 220 227 214 217 206 220 230 233 212 226 233 232 238 240 236 242 241 250 249 246 247 248 251 253 254 256 260 269 279 287 292 296 298 300 304 307
213 208 203 205 200 199 202 200 197 196 193 191 196 181 179 180 183 186 185 193 193 187 197 209 174 178 198 191 189 192 204 202 187 171 184 214 222 226 249 256 211 189 203 224 234 234 202 209 238 233 240 242 216 234 229 230 232 235 237 243 247 249 251 254 259 269 276 282 288 292 296 300 303 305
205 206 202 200 198 198 198 200 199 194 189 190 195 174 182 185 183 182 185 195 192 196 208 200 191 206 207 201 183 203 198 188 191 192 188 210 207 216 225 251 202 161 183 201 233 255 177 174 230 237 239 233 223 224 235 236 232 232 235 241 246 248 250 254 262 270 276 282 287 291 295 298 300 302
196 194 189 188 180 184 185 178 186 187 188 187 186 177 184 192 198 189 183 181 191 197 199 201 209 202 214 201 180 197 186 187 186 199 195 196 203 212 222 236 246 93 190 190 216 255 141 173 229 248 243 230 225 229 237 237 234 238 242 243 245 248 250 254 262 271 279 283 286 290 294 295 297 300
190 182 178 174 180 175 167 167 169 173 184 186 184 181 189 198 200 201 202 195 194 193 205 206 209 208 202 208 200 183 182 164 167 169 202 207 209 221 232 242 249 117 203 159 219 257 222 160 224 250 248 226 230 241 238 241 244 246 246 245 246 249 250 255 263 270 276 280 286 290 293 295 297 299
184 181 179 171 163 165 172 174 168 175 178 177 167 176 185 197 208 211 212 214 218 215 207 210 219 208 198 217 217 146 145 153 180 178 209 195 200 208 227 28 50 100 185 191 217 261 234 175 219 249 264 173 235 251 256 247 247 247 246 247 250 252 255 260 266 270 276 283 289 291 294 296 298 300
183 183 186 181 178 175 181 186 173 172 181 169 168 184 192 202 192 187 194 200 198 199 211 223 232 226 171 220 104 128 164 184 195 195 197 186 201 195 37 282 184 174 178 205 183 260 210 99 231 257 260 239 261 249 250 247 252 251 250 252 255 257 261 266 270 274 278 285 290 293 296 299 301 302
180 175 180 179 171 177 186 182 178 180 167 160 158 169 187 196 190 202 189 206 208 201 208 221 234 265 105 137 163 148 166 175 163 123 101 104 134 174 223 242 210 225 150 166 204 253 272 116 256 284 335 224 268 252 240 239 246 252 256 259 261 264 264 268 273 274 280 287 292 295 299 301 303 304
175 174 177 178 172 179 191 174 177 171 155 155 164 171 180 184 186 208 144 108 120 92 72 63 72 90 130 161 151 155 168 170 153 154 161 184 171 180 221 238 221 235 138 175 195 254 280 272 270 293 277 257 265 268 264 356 329 292 278 272 270 268 269 272 273 276 281 286 290 296 299 302 304 307
174 176 177 174 176 183 183 169 167 164 162 163 170 171 172 179 200 206 137 136 137 122 107 120 133 153 161 166 169 167 161 143 153 168 196 160 161 203 216 244 248 185 140 154 162 201 248 307 253 287 276 234 239 258 355 357 306 282 271 269 269 268 270 272 274 278 280 284 290 294 299 302 307 307
164 167 182 188 181 183 163 165 167 161 160 166 180 183 175 186 198 195 146 154 138 142 139 150 141 141 147 164 170 167 154 157 176 194 183 136 183 206 221 237 259 280 193 106 176 207 272 15 2 49 322 301 116 100 331 306 337 314 299 293 279 299 299 281 280 279 280 282 287 292 297 300 305 304
174 171 179 193 188 155 154 165 164 165 173 183 193 181 185 183 203 155 140 146 143 147 159 150 154 143 139 132 128 133 146 165 186 194 62 151 212 231 253 245 249 260 332 121 186 210 340 104 299 67 312 312 296 74 182 270 179 283 275 266 276 262 275 282 277 275 277 280 285 289 292 294 299 300
177 180 189 184 183 162 164 163 168 170 180 188 185 198 192 181 116 117 139 149 140 143 129 132 145 147 147 139 140 136 141 152 164 159 77 58 40 293 257 260 256 268 72 141 175 209 270 35 302 274 269 241 278 296 292 270 243 242 224 241 269 281 273 277 276 277 278 276 276 277 279 284 292 297
188 186 181 186 177 168 166 167 169 171 173 171 169 183 106 106 123 136 133 139 156 157 161 165 165 159 159 155 153 138 133 121 115 115 122 117 100 73 309 295 284 276 52 133 166 191 262 283 283 295 296 283 286 296 299 299 293 220 285 220 246 265 280 277 280 283 283 281 282 279 283 291 296 297
187 180 182 173 167 166 164 164 167 169 164 155 159 131 132 133 128 132 142 148 154 159 165 164 167 162 159 157 152 153 148 127 120 139 115 90 98 93 74 65 45 66 73 134 174 201 238 272 310 297 294 304 297 300 291 295 306 320 294 255 181 255 245 263 286 292 294 292 287 290 289 289 289 293
180 173 173 163 160 161 160 159 163 163 156 152 146 145 140 132 133 125 124 144 152 148 151 160 159 154 146 136 141 140 134 114 113 89 84 98 107 118 115 105 101 89 88 117 162 196 236 276 289 297 288 289 293 293 298 297 302 310 307 316 312 297 281 285 288 294 295 297 290 295 300 303 306 309
175 171 164 157 157 154 150 154 152 149 141 135 147 144 131 131 138 141 151 147 146 154 162 160 143 129 127 115 91 81 86 94 105 114 103 94 95 87 118 130 138 117 108 117 172 218 237 261 278 294 283 276 276 282 287 294 306 304 312 316 311 324 322 309 307 308 304 300 296 289 288 292 295 295
134 141 144 145 141 139 143 146 152 153 146 147 144 137 135 141 150 156 146 146 159 166 156 141 133 122 120 111 103 111 133 136 128 135 143 146 140 149 152 145 139 135 137 144 181 202 230 251 264 279 278 275 273 283 289 298 298 303 308 304 303 305 302 323 308 300 297 301 299 288 280 282 278 271
126 131 134 136 136 126 133 125 123 121 129 132 131 138 149 148 143 147 157 162 165 150 136 125 112 112 106 111 130 140 132 114 112 121 137 134 123 127 114 118 128 113 121 134 149 152 220 230 260 239 256 279 282 278 289 293 294 301 300 302 303 300 309 308 306 302 298 295 304 300 283 265 258 248
131 126 113 114 105 107 99 108 108 128 142 145 145 148 142 129 107 88 80 81 94 105 113 111 110 112 129 138 129 129 137 130 124 130 141 126 126 115 121 146 133 100 48 118 135 167 184 202 202 249 245 256 267 286 291 285 288 293 299 303 301 299 302 305 303 304 311 307 296 299 296 288 283 283
114 113 117 125 128 132 132 127 140 141 142 145 141 128 129 129 136 148 156 148 136 130 128 137 146 151 151 147 147 148 149 149 143 144 138 133 133 126 118 110 144 191 287 330 346 334 165 168 181 211 250 272 278 286 287 290 292 297 303 304 308 306 311 311 308 307 313 305 303 307 302 299 291 287
143 144 139 146 144 145 148 148 154 158 152 144 144 148 142 145 150 155 157 154 151 152 154 153 154 158 157 156 158 159 152 144 141 137 134 131 129 133 138 139 162 159 216 300 327 329 352 336 171 210 214 237 249 235 238 269 282 303 302 306 299 305 309 317 317 318 313 307 310 306 308 309 304 297
162 155 146 147 145 146 153 158 155 151 156 155 150 149 150 156 159 159 158 160 155 154 154 156 158 159 161 161 159 158 151 143 139 137 138 135 147 145 150 155 188 240 242 309 318 331 346 326 322 319 313 294 273 273 210 202 261 292 323 311 324 319 322 325 325 327 321 307 300 298 303 307 311 312
159 157 145 149 157 158 160 158 146 151 151 157 157 150 153 159 162 162 162 159 157 157 157 157 157 159 160 157 154 147 140 139 140 143 151 154 154 158 164 183 183 245 259 270 284 315 323 323 328 325 327 325 324 317 341 190 188 236 292 312 325 333 323 321 318 314 310 305 308 297 299 309 316 328
163 154 150 150 149 159 155 151 155 155 148 148 157 164 163 160 160 161 149 145 151 155 157 154 155 154 151 147 141 137 139 145 145 152 157 160 162 170 181 212 215 226 240 270 287 297 310 316 321 318 316 317 319 322 303 1 205 232 243 269 288 302 312 311 308 307 310 306 293 301 295 302 307 318
160 150 147 148 153 153 141 145 147 150 152 150 147 143 137 134 136 132 138 146 145 142 149 151 148 149 149 148 145 145 146 150 149 157 164 167 175 190 191 196 228 242 260 283 284 284 302 305 304 299 308 304 317 307 318 321 341 328 7 324 303 308 308 307 305 307 313 316 306 301 306 300 306 320
162 158 156 152 154 146 148 145 144 144 141 144 142 139 130 127 127 134 144 141 141 141 139 138 142 143 141 150 155 153 154 158 164 168 171 185 185 183 200 202 213 247 230 261 278 281 273 289 294 300 292 299 299 311 318 315 304 304 297 297 300 304 310 312 307 306 308 312 313 312 301 294 296 286
158 153 146 142 140 137 129 132 138 140 145 145 137 132 132 136 139 140 141 139 139 139 138 138 135 136 140 141 148 156 157 167 172 174 176 184 187 190 190 203 208 215 241 257 254 276 281 262 291 340 351 308 305 316 306 283 276 272 270 271 282 309 319 319 313 314 304 313 324 312 317 321 329 333
150 148 143 136 133 135 141 143 147 148 146 137 132 134 136 136 140 143 143 143 142 143 146 145 145 153 156 157 159 163 166 169 172 178 182 185 184 187 189 192 214 219 210 241 237 239 254 53 52 7 335 296 293 292 285 288 295 302 302 311 328 330 331 326 316 308 298 323 304 311 318 327 328 320
152 143 140 139 135 135 141 148 153 153 150 150 149 151 151 154 159 154 144 132 144 155 155 156 157 160 157 160 163 167 170 176 174 175 173 176 175 177 179 195 196 216 206 218 223 235 307 80 14 302 281 279 291 298 296 295 291 300 307 312 313 328 330 322 320 316 305 183 255 313 328 339 336 312
145 140 140 143 147 155 158 158 158 156 155 153 154 153 152 149 145 148 152 153 157 158 155 152 151 153 152 155 162 170 170 177 173 172 169 170 170 178 181 191 184 190 204 221 242 251 266 289 291 284 299 283 272 286 269 285 292 300 310 315 324 327 319 328 335 325 302 178 322 334 331 329 335 338
143 152 153 152 152 149 146 142 134 126 129 133 133 137 143 147 152 157 160 159 159 159 155 151 154 153 157 160 164 170 173 171 168 165 171 174 174 175 175 179 183 193 209 214 225 243 254 270 273 270 282 307 315 275 286 304 300 310 313 318 319 323 325 338 343 350 119 121 91 50 287 270 286 308
149 136 123 118 112 109 112 115 113 114 118 123 133 132 129 127 123 120 114 114 112 120 145 156 158 153 156 159 164 170 166 159 159 166 162 170 167 174 175 174 183 198 197 204 201 237 245 233 270 273 264 248 251 266 279 283 288 300 304 312 313 318 326 343 350 347 70 77 39 11 237 249 282 280